Regional Weather Roundup
Issued by NWS

Home | Current Version | Previous Version | Text Only | Print | Product List | Glossary On
Versions: 1 2 3 4 5 6 7 8 9 10 11 12 13 14 15 16 17 18 19 20 21 22 23 24 25 26 27 28 29 30 31 32 33 34 35 36 37 38 39 40 41 42 43 44 45 46 47 48 49 50
000
ASUS43 KDTX 140301
RWRMI
MICHIGAN HOURLY REGIONAL WEATHER ROUNDUP
NATIONAL WEATHER SERVICE DETROIT/PONTIAC MI
1000 PM EST WED DEC 13 2017

NOTE: "FAIR" INDICATES FEW OR NO CLOUDS BELOW 12,000 FEET WITH NO
SIGNIFICANT WEATHER AND/OR OBSTRUCTION TO VISIBILITY.

MIZ047>049-052>055-059>063-066>070-074>076-081>083-140400-
SOUTHEAST LOWER MICHIGAN

CITY           SKY/WX    TMP DP  RH WIND       PRES   REMARKS
ADRIAN         LGT SNOW  22  20  92 NE9       29.38R FOG     WCI  12
ALMA           LGT SNOW  19  18  93 N10       29.56R WCI   8
ANN ARBOR      LGT SNOW  22  20  92 N12       29.40R FOG     WCI  10
BAD AXE        LGT SNOW  19  17  92 N5        29.54S WCI  13
CARO           LGT SNOW  20  17  90 N6        29.52R WCI  12
DETROIT CITY   LGT SNOW  22  19  89 NE13      29.44R FOG     WCI  10
DETROIT        LGT SNOW  25  22  88 NE12      29.41S VSB 1   WCI  14
FLINT          LGT SNOW  19  16  88 NE14      29.49R FOG     WCI   6
GROSSE ILE     LGT SNOW  25  23  92 NE13      29.39S WCI  13
HILLSDALE      LGT SNOW  23  19  86 N9        29.37R WCI  13
HOWELL         LGT SNOW  19  18  93 NE10G17   29.45R WCI   8

CITY           SKY/WX    TMP DP  RH WIND       PRES   REMARKS
JACKSON        LGT SNOW  22  18  85 N10       29.42R VSB 3/4 WCI  11
LAMBERTVILLE   LGT SNOW  24  22  92 N5        29.36R WCI  18
LANSING        LGT SNOW  19  16  88 NE16      29.49R FOG     WCI   4
LAPEER         CLOUDY    20  17  88 NE7       29.49R WCI  11
MASON          LGT SNOW  21  16  80 N15G22    29.46R WCI   8
MONROE         LGT SNOW  26  23  89 NE7       29.37R WCI  18
MT. CLEMENS    LGT SNOW  19  18  97 NE14      29.44S DRFTSNOWWCI   5
PONTIAC        LGT SNOW  18  15  88 NE12      29.43R FOG     WCI   5
PORT HOPE        N/A     24  20  84 NE23      29.54F WCI   9
PORT HURON     LGT SNOW  18  14  86 NE8       29.49S WCI   7
TRI CITIES     LGT SNOW  19  18  95 N15       29.56R VSB 3/4 WCI   5
MIDLAND        FLURRIES  19  15  84 N8        29.57R WCI   9
TROY           LGT SNOW  20  17  88 N9G17     29.46R WCI   9
SAGINAW HB     CLOUDY    21  19  93 NE16      29.54R WCI   7
$$
MIZ043>046-050>051-056>058-064>065-071>073-077>080-140400-
SOUTHWEST LOWER MICHIGAN

CITY           SKY/WX    TMP DP  RH WIND       PRES   REMARKS
BATTLE CREEK   LGT SNOW  20  17  88 N15       29.46R FOG     WCI   6
BENTON HARBOR  LGT SNOW  24  20  84 VRB6G17   29.54R FOG     WCI  17
BIG RAPIDS     CLOUDY    15  11  82 N7        29.59R WCI   6
COLDWATER      FLURRIES  22  20  92 N10       29.42R WCI  12
HOLLAND        LGT SNOW  20  16  84 N13G18    29.57R FOG     WCI   7
GRAND RAPIDS   LGT SNOW  19  16  88 N17       29.54R FOG     WCI   4
IONIA          LGT SNOW  19  16  87 N14G20    29.52R WCI   6
KALAMAZOO      LGT SNOW  21  17  84 N13       29.48R FOG     WCI   9
LUDINGTON      CLOUDY    16  11  80 N7        29.67R WCI   7
MARSHALL       LGT SNOW  20  18  92 N9G16     29.44R WCI  10
MOUNT PLEASANT LGT SNOW  18  13  81 N12       29.57R WCI   6
MUSKEGON       LGT SNOW  20  14  77 N9G18     29.61R WCI   9
SOUTH HAVEN    LGT SNOW  22  18  84 N9G16     29.55R WCI  11
$$
MIZ016>042-140400-
NORTHERN LOWER MICHIGAN

CITY           SKY/WX    TMP DP  RH WIND       PRES   REMARKS
ALPENA         CLOUDY    12   8  84 N12       29.66S WCI  -2
BEAVER ISLAND  CLEAR     12   6  76 NE5       29.75R WCI   4
BELLAIRE       CLEAR     14  11  89 N3        29.71R
CADILLAC       CLOUDY    12   8  87 N8        29.60R WCI   0
CHARLEVOIX     PTCLDY    15   8  73 NE9       29.75R WCI   3
FRANKFORT      CLOUDY    20  12  71 NE7       29.70R WCI  11
GAYLORD        CLOUDY     9   5  84 N6        29.63R WCI  -1
GRAYLING       CLEAR     11   6  80 N9        29.63R WCI  -2
HARBOR SPRINGS CLEAR      9   5  82 N6        29.71R WCI   0
HOUGHTON LAKE  PTCLDY    13   8  81 N10       29.61R WCI   0
MANISTEE       CLOUDY    16  12  84 N9        29.69R WCI   4
OSCODA         FLURRIES  19  14  82 N10       29.60R WCI   7
PELLSTON       CLEAR      4   1  88 N7        29.73R WCI  -8
ROGERS CITY    LGT SNOW  17  10  77 N9        29.69R WCI   5
TRAVERSE CITY  CLOUDY    19  11  70 NE12      29.69R WCI   7
$$
MIZ007>008-015-140400-
EASTERN UPPER MICHIGAN

CITY           SKY/WX    TMP DP  RH WIND       PRES   REMARKS
KINROSS        CLOUDY    -1  -5  82 N7        29.74R WCI -14
MACKINAC ISLAN PTCLDY    10   4  78 NE10      29.72R WCI  -4
NEWBERRY       CLOUDY     4   3  95 N5        29.74R WCI  -5
S. S. MARIE    CLOUDY     3  -5  69 N5        29.75R WCI  -6
MUNISING         N/A     21  17  84 N16       29.77R WCI   7
$$
MIZ004>006-011>014-085-140400-
CENTRAL UPPER MICHIGAN

CITY           SKY/WX    TMP DP  RH WIND       PRES   REMARKS
MANISTIQUE     CLOUDY     4  -2  77 NW3       29.76R
ESCANABA       CLEAR      8   6  92 NW6       29.79R WCI  -2
MENOMINEE      CLEAR     10   5  80 N6        29.81R WCI   0
SAWYER-GWINN   LGT SNOW  16  12  86 N12       29.75R VSB 1   WCI   3
$$
MIZ001>003-009>011-084-140400-
WESTERN UPPER MICHIGAN

CITY           SKY/WX    TMP DP  RH WIND       PRES   REMARKS
IRON MOUNTAIN  CLOUDY     9   4  80 CALM      29.76R
HOUGHTON       CLOUDY    16   8  71 N10       29.82R WCI   4
COPPER HARBOR    N/A     17  11  77 NE20      29.84R WCI   1
IRONWOOD       FLURRIES  17  11  77 VRB5      29.85R WCI  10
$$

ABBREVIATIONS USED IN REMARKS
   TC - TEMPERATURE IN CELSIUS
  WCI - WIND CHILL INDEX
   HX - HEAT INDEX
  VSB - VISIBILITY





USA.gov is the U.S. government's official web portal to all federal, state and local government web resources and services.